Wind_Speed
71 70 70 70 71 72 72 74 74 73 69 63 56 50 44 39 32 22 11 2 10 16 22 26 29 31 33 35 39 44 51 59 64 67 69 72 79 90 100 103 99 96 95
69 68 68 69 70 71 71 72 73 71 67 62 55 47 41 36 31 24 15 6 2 10 15 20 23 26 29 32 36 41 48 55 61 65 67 68 73 83 94 101 100 95 93
67 66 67 67 68 69 70 71 72 70 66 61 53 46 39 34 28 23 16 9 3 5 10 15 19 22 25 28 32 37 44 52 59 62 65 66 69 76 87 97 100 97 93
66 65 65 66 67 68 69 70 70 70 66 61 54 45 38 32 28 23 17 11 5 3 7 12 16 19 21 24 28 34 40 48 55 60 62 64 65 70 78 91 98 99 94
64 64 64 64 65 67 68 69 69 69 67 63 56 47 39 32 27 22 17 12 7 4 6 9 13 16 18 21 25 30 37 45 52 58 60 61 62 64 71 83 93 98 95
63 63 62 62 63 65 66 67 68 67 67 64 59 52 43 34 27 22 17 13 8 4 4 7 10 13 15 18 22 27 34 41 49 55 58 59 59 59 64 73 86 96 96
62 61 61 61 62 63 64 65 66 66 66 65 61 55 48 39 31 24 19 15 10 6 3 5 8 11 13 16 20 25 31 38 45 51 55 58 57 56 58 65 76 87 93
61 60 60 60 61 62 63 63 64 65 65 64 62 58 52 45 37 29 23 18 13 8 4 3 5 8 11 14 18 23 28 35 42 47 52 54 54 53 53 58 66 76 85
60 59 59 59 60 60 61 62 63 63 64 64 62 60 55 50 43 35 27 21 16 11 5 1 3 7 10 13 17 21 26 32 38 45 49 51 52 51 50 53 58 66 75
59 58 58 58 59 59 60 60 61 62 62 63 62 61 58 53 48 41 32 24 18 13 8 3 3 6 10 13 16 20 24 29 36 42 46 49 49 49 48 50 53 59 66
58 57 57 57 58 58 59 59 59 60 61 61 61 61 59 56 51 45 38 29 21 14 9 5 3 5 9 12 16 19 23 28 33 39 44 47 47 47 47 47 50 54 60
58 57 56 56 57 57 57 57 57 57 58 58 58 58 58 57 54 49 43 35 26 18 11 6 3 5 9 12 15 19 23 26 31 36 40 44 45 46 46 46 49 52 58
57 56 56 56 56 56 56 55 55 55 55 55 56 56 56 55 54 51 46 40 32 23 14 8 4 5 8 12 15 19 22 25 28 32 37 40 42 43 45 46 48 52 59
56 55 55 55 55 56 55 54 53 53 53 53 54 54 54 53 53 52 49 44 37 29 19 11 6 4 8 12 15 18 21 23 26 30 33 36 39 40 43 45 48 52 59
55 54 54 54 54 54 55 54 53 52 53 52 52 52 52 51 52 52 50 46 41 34 26 16 8 4 6 11 15 17 20 22 25 27 30 32 35 37 40 42 46 52 58
54 53 52 52 52 53 53 54 54 52 51 51 50 50 50 50 50 49 48 47 43 38 31 22 13 5 4 9 13 16 19 21 23 25 27 29 31 33 36 40 44 50 56
54 52 51 51 51 51 51 51 51 50 50 49 48 48 48 47 47 47 46 45 44 40 35 27 18 10 3 6 11 15 18 20 21 23 25 26 27 29 31 36 40 46 52
53 52 50 50 50 50 50 50 50 49 47 47 47 46 46 45 44 44 43 43 42 41 37 32 24 15 7 2 9 14 17 19 21 22 23 25 26 26 28 31 35 40 46
53 51 50 49 49 49 49 49 49 49 47 45 44 44 44 43 42 42 41 40 39 39 37 34 29 22 13 4 5 11 16 19 21 22 23 24 25 25 26 27 31 36 41
52 50 49 48 48 48 48 48 48 47 47 45 43 42 41 41 40 40 39 38 37 37 36 35 32 27 21 12 2 7 14 19 22 23 24 25 26 26 25 26 29 33 38
51 50 48 47 46 47 47 47 46 46 46 45 43 42 41 40 40 39 38 37 36 35 34 34 32 30 25 19 10 3 10 17 22 25 26 27 28 27 26 27 28 30 34
50 49 48 47 46 45 46 46 45 45 44 44 42 41 41 40 39 38 37 36 35 34 33 32 32 30 28 24 17 9 5 12 19 25 28 29 30 30 29 28 29 31 33
49 49 48 46 45 44 44 45 44 44 43 43 41 40 39 39 38 37 36 35 34 33 32 32 31 30 29 26 22 15 8 8 15 22 28 31 33 33 32 31 32 32 33
48 48 47 46 45 44 43 43 43 43 42 42 41 39 39 38 37 37 36 35 34 33 32 32 31 31 30 29 25 20 14 8 10 18 26 31 34 36 36 35 35 35 34
47 47 46 45 44 43 42 42 42 42 41 41 40 38 38 38 37 36 35 34 34 33 32 32 32 32 32 31 29 24 18 12 9 13 22 29 34 37 39 39 39 38 37
45 46 46 45 43 42 41 40 40 40 40 39 39 38 37 37 37 36 35 34 33 32 32 32 33 33 34 34 32 28 22 16 11 10 17 26 33 38 41 42 43 43 42
Wind_Direction
344 345 347 349 350 351 352 353 354 354 355 355 357 360 4 9 13 14 12 268 229 229 229 231 232 232 232 229 224 218 213 211 211 213 213 213 211 209 207 206 205 207 210
346 347 349 351 353 354 355 356 358 358 359 360 0 3 7 13 18 23 27 28 249 229 227 228 230 230 230 227 223 218 212 209 209 211 212 211 211 209 207 206 205 205 208
348 349 351 353 355 356 358 359 1 2 2 3 3 4 7 11 16 20 24 23 357 238 226 226 228 229 228 225 221 217 212 207 206 208 211 210 210 210 208 206 205 205 207
350 351 353 354 357 359 0 2 3 5 6 6 6 5 5 7 10 13 15 11 354 275 233 229 227 226 226 223 219 215 210 206 204 206 209 209 209 209 208 207 206 205 205
351 353 355 356 358 0 2 4 5 7 8 9 10 8 7 5 5 7 9 6 355 306 251 233 226 224 223 220 216 212 208 205 203 203 207 208 208 208 208 208 207 206 205
353 355 356 358 360 2 4 5 7 8 10 11 11 12 10 8 6 5 6 4 356 324 261 233 225 221 218 215 211 208 205 203 201 202 204 207 207 207 208 208 208 209 207
354 356 358 359 1 3 5 6 8 9 11 13 13 13 13 12 9 8 7 3 357 343 292 239 225 217 211 207 204 202 201 200 200 200 202 206 207 206 207 208 209 210 209
356 357 359 0 2 4 5 7 9 10 12 13 15 15 15 15 13 10 7 7 4 358 337 264 223 209 202 199 197 195 195 197 198 198 201 204 206 206 206 207 209 210 211
357 358 359 1 3 5 6 7 9 11 12 14 15 16 17 17 16 14 11 10 10 9 5 336 198 192 189 189 188 188 190 192 194 196 198 201 204 205 205 205 206 209 211
357 359 360 2 4 5 6 7 9 11 12 14 15 16 17 18 18 17 15 13 13 15 18 34 166 179 180 180 181 182 185 188 190 193 196 199 202 204 204 204 204 206 209
358 359 0 2 4 5 6 8 9 10 12 13 15 16 17 18 19 19 19 18 17 17 22 39 113 159 170 173 174 176 180 183 186 189 194 198 201 202 204 204 203 203 205
358 359 1 3 4 6 6 8 9 10 12 13 14 16 18 19 19 20 21 21 21 21 25 39 90 144 160 165 168 171 174 177 180 185 190 195 200 202 203 203 202 201 200
358 359 1 2 4 6 7 7 9 10 11 12 14 16 17 19 20 21 22 23 23 23 27 35 69 136 158 164 165 167 171 174 177 182 188 193 198 201 203 204 203 201 198
358 359 0 1 3 5 6 7 8 9 11 12 14 15 17 18 20 22 23 24 24 25 27 33 53 120 156 164 166 166 169 172 175 180 186 192 198 201 203 204 204 203 199
358 359 0 1 2 3 4 6 7 8 10 11 13 14 16 18 19 21 23 24 25 27 28 31 43 91 150 166 169 170 170 172 175 179 184 190 197 201 203 204 204 203 201
357 358 360 1 2 3 4 4 5 7 9 10 11 13 15 16 18 20 22 23 25 26 28 30 35 57 139 169 175 176 175 175 176 180 184 188 194 200 203 205 205 204 203
357 358 359 360 1 2 3 4 5 5 6 9 10 12 13 15 17 18 20 22 24 26 27 29 32 38 87 173 182 184 183 182 181 182 185 189 193 198 203 205 206 206 205
356 357 358 359 0 1 2 3 5 6 6 7 8 10 12 14 16 17 19 21 22 24 26 28 30 32 39 164 191 193 193 191 190 189 190 191 194 197 200 204 206 206 206
355 356 357 358 359 0 1 2 4 5 6 7 8 9 10 11 13 16 17 19 20 22 24 26 27 28 29 31 202 204 203 201 199 197 196 195 196 197 199 201 202 203 204
354 355 355 357 358 359 0 1 2 3 4 5 7 8 9 10 12 13 15 17 18 20 22 23 25 25 24 21 348 219 212 210 207 205 203 200 198 198 199 199 198 198 199
353 354 354 355 357 358 359 0 1 2 3 4 5 6 8 9 10 12 14 15 17 18 19 20 21 22 21 18 10 291 226 217 214 211 209 206 203 201 199 198 197 196 197
352 353 353 354 355 357 358 359 0 1 2 3 4 4 6 7 8 9 11 13 15 16 17 18 18 18 17 16 11 355 271 230 220 215 212 210 208 205 202 200 198 197 197
352 352 352 353 354 355 357 358 359 0 1 2 3 3 4 5 6 8 9 11 13 14 15 15 15 15 13 11 8 1 337 262 230 220 215 212 211 209 206 203 199 197 197
351 351 351 352 353 354 355 357 358 359 0 1 2 2 3 4 5 6 8 9 10 11 11 12 12 11 10 8 5 359 349 315 251 227 219 214 211 210 208 206 202 200 198
350 350 351 351 351 352 353 355 357 358 359 360 1 1 2 3 4 5 6 7 8 8 9 9 9 8 8 7 4 359 349 332 290 241 223 216 213 210 209 207 205 202 200
349 349 350 350 351 351 352 353 355 356 357 358 360 0 1 1 2 3 5 6 6 6 7 7 6 6 5 4 2 359 353 341 315 265 233 219 213 211 209 207 206 204 201
Height
5546 5529 5513 5495 5477 5459 5440 5420 5399 5377 5357 5338 5321 5306 5293 5283 5274 5269 5267 5270 5274 5280 5286 5292 5298 5304 5310 5317 5324 5333 5344 5357 5372 5385 5400 5415 5432 5450 5471 5493 5514 5534 5552
5542 5525 5509 5492 5475 5457 5438 5419 5398 5377 5357 5339 5323 5310 5299 5290 5283 5278 5275 5275 5277 5279 5284 5288 5293 5299 5304 5310 5317 5326 5336 5349 5363 5376 5390 5405 5421 5438 5457 5479 5500 5520 5538
5538 5522 5506 5490 5473 5456 5437 5418 5399 5379 5360 5342 5327 5314 5304 5297 5290 5285 5281 5280 5279 5280 5283 5286 5290 5294 5300 5305 5312 5319 5329 5341 5355 5368 5381 5396 5412 5428 5446 5466 5487 5506 5525
5536 5520 5504 5488 5472 5455 5437 5419 5401 5382 5364 5347 5331 5319 5309 5301 5295 5290 5286 5284 5282 5282 5283 5285 5288 5292 5296 5301 5307 5315 5324 5335 5348 5361 5374 5389 5404 5419 5436 5455 5474 5493 5512
5534 5518 5503 5487 5471 5455 5438 5421 5403 5386 5368 5352 5337 5324 5313 5305 5299 5293 5290 5286 5284 5283 5283 5284 5287 5290 5294 5298 5304 5311 5320 5330 5342 5355 5368 5382 5397 5413 5428 5444 5463 5481 5499
5532 5517 5501 5486 5471 5456 5440 5423 5407 5390 5373 5357 5342 5329 5318 5309 5302 5296 5292 5288 5286 5284 5283 5284 5286 5289 5292 5297 5302 5308 5316 5326 5337 5350 5363 5377 5391 5406 5421 5436 5453 5470 5488
5530 5515 5501 5486 5472 5457 5442 5427 5411 5395 5379 5363 5349 5335 5323 5313 5305 5298 5293 5290 5287 5285 5284 5285 5286 5288 5292 5295 5300 5306 5313 5322 5333 5346 5359 5372 5386 5401 5416 5430 5444 5459 5476
5529 5515 5501 5487 5473 5458 5444 5430 5415 5400 5385 5370 5355 5341 5329 5318 5309 5301 5296 5291 5288 5286 5285 5285 5287 5289 5291 5295 5299 5305 5312 5320 5331 5343 5356 5370 5383 5396 5409 5422 5436 5451 5466
5529 5515 5502 5488 5474 5460 5447 5433 5419 5405 5391 5377 5362 5349 5336 5324 5314 5305 5299 5294 5290 5288 5286 5286 5287 5289 5291 5295 5299 5305 5311 5319 5328 5340 5352 5365 5378 5391 5404 5416 5430 5444 5458
5529 5516 5503 5489 5475 5462 5449 5436 5422 5409 5396 5382 5368 5355 5343 5331 5320 5311 5303 5297 5293 5290 5288 5288 5289 5290 5292 5296 5300 5305 5312 5319 5327 5338 5350 5362 5375 5388 5400 5412 5424 5437 5450
5529 5517 5504 5490 5477 5464 5451 5438 5426 5413 5400 5387 5374 5362 5350 5338 5327 5317 5309 5302 5296 5293 5291 5290 5291 5292 5294 5298 5302 5307 5312 5319 5327 5337 5348 5360 5372 5384 5396 5407 5419 5430 5444
5529 5517 5505 5492 5479 5466 5454 5442 5430 5418 5406 5394 5383 5370 5358 5346 5335 5324 5315 5307 5301 5297 5295 5294 5294 5295 5297 5300 5304 5309 5314 5320 5327 5336 5347 5358 5369 5380 5391 5402 5413 5424 5436
5529 5517 5505 5493 5481 5469 5458 5446 5435 5423 5412 5401 5390 5378 5366 5355 5344 5333 5322 5314 5307 5302 5299 5298 5298 5298 5301 5303 5307 5311 5317 5322 5328 5336 5345 5355 5366 5376 5386 5396 5407 5418 5429
5529 5517 5505 5494 5483 5471 5461 5450 5439 5428 5418 5407 5395 5384 5373 5362 5352 5341 5331 5322 5315 5309 5304 5302 5302 5302 5304 5307 5311 5315 5319 5324 5330 5337 5345 5354 5363 5372 5382 5391 5401 5411 5423
5529 5517 5506 5495 5483 5472 5462 5452 5442 5431 5420 5410 5400 5390 5380 5369 5358 5348 5339 5330 5322 5315 5310 5307 5306 5307 5308 5311 5314 5318 5322 5326 5332 5338 5345 5352 5360 5369 5377 5385 5394 5404 5416
5529 5518 5508 5497 5486 5475 5464 5453 5442 5433 5423 5413 5403 5394 5384 5374 5365 5356 5347 5338 5330 5323 5318 5313 5311 5311 5312 5314 5317 5320 5324 5328 5333 5339 5345 5351 5358 5365 5373 5380 5389 5398 5409
5530 5519 5509 5499 5489 5478 5468 5458 5447 5436 5426 5417 5408 5399 5390 5381 5372 5363 5355 5347 5339 5331 5325 5320 5317 5315 5315 5317 5319 5322 5326 5330 5334 5339 5345 5350 5356 5362 5369 5376 5383 5392 5401
5530 5520 5509 5499 5489 5479 5470 5460 5450 5441 5431 5422 5412 5403 5395 5386 5378 5370 5361 5354 5346 5339 5333 5327 5322 5319 5319 5319 5321 5324 5327 5331 5335 5339 5344 5349 5354 5360 5366 5371 5378 5385 5394
5529 5519 5509 5499 5490 5480 5471 5461 5451 5442 5433 5425 5416 5407 5399 5391 5383 5375 5367 5360 5353 5346 5339 5333 5328 5324 5322 5321 5322 5324 5327 5331 5334 5339 5343 5348 5353 5358 5363 5368 5374 5380 5388
5529 5519 5509 5500 5490 5481 5472 5463 5453 5444 5436 5427 5419 5411 5403 5395 5387 5380 5372 5365 5358 5351 5345 5339 5333 5329 5326 5323 5323 5324 5326 5329 5333 5337 5341 5346 5350 5355 5360 5365 5370 5376 5383
5529 5519 5509 5500 5491 5482 5473 5464 5455 5446 5437 5429 5420 5413 5405 5397 5390 5383 5376 5369 5362 5356 5350 5344 5338 5333 5329 5326 5324 5323 5324 5326 5329 5333 5338 5342 5347 5352 5357 5362 5367 5373 5380
5528 5518 5508 5499 5490 5482 5473 5464 5455 5447 5438 5430 5422 5414 5407 5399 5392 5385 5378 5372 5365 5359 5353 5348 5342 5337 5332 5328 5325 5323 5322 5323 5325 5329 5333 5338 5343 5348 5353 5359 5364 5370 5376
5527 5517 5507 5498 5490 5481 5473 5464 5456 5447 5439 5431 5424 5416 5409 5402 5394 5387 5380 5374 5368 5361 5356 5350 5345 5340 5335 5330 5326 5322 5320 5319 5320 5323 5327 5332 5337 5343 5349 5354 5360 5367 5373
5525 5515 5506 5497 5489 5481 5472 5464 5456 5448 5440 5432 5425 5417 5410 5403 5396 5389 5382 5376 5369 5363 5357 5352 5346 5341 5336 5330 5326 5321 5318 5316 5315 5317 5320 5325 5330 5336 5343 5349 5356 5362 5369
5523 5514 5505 5496 5488 5480 5472 5464 5456 5448 5440 5433 5425 5418 5411 5404 5397 5390 5383 5377 5370 5364 5358 5353 5347 5341 5336 5330 5324 5319 5315 5312 5311 5311 5312 5316 5322 5328 5335 5342 5349 5357 5364
5521 5512 5503 5495 5486 5478 5471 5463 5456 5448 5440 5433 5426 5419 5412 5405 5398 5391 5384 5378 5372 5365 5359 5353 5347 5341 5335 5329 5322 5317 5311 5308 5305 5304 5305 5308 5313 5319 5326 5334 5342 5350 5358